Location: K�ln
(52.3670°N, 9.7170°E)
Time: 02:09:18
(UTC+02:00)

ISS - Visible Passes

Search period start: 17 May 2025 00:00
Search period end: 27 May 2025 00:00
Orbit: 416 x 420 km, 51.6° (Epoch: 16 May)

Date Brightness Start Highest point End Pass type
(mag) Time Alt. Az. Time Alt. Az. Time Alt. Az.
17 May -2.4 00:40:27 10° W 00:42:31 27° WSW 00:42:31 27° WSW visible
17 May -3.8 22:15:38 10° W 22:19:00 80° S 22:22:21 10° E visible
17 May -3.4 23:52:25 10° W 23:55:38 43° SSW 23:56:06 40° S visible
18 May -3.6 23:04:24 10° W 23:07:42 55° SSW 23:09:42 21° SE visible
19 May -1.5 00:41:38 10° W 00:42:36 14° WSW 00:42:36 14° WSW visible
19 May -3.7 22:16:23 10° W 22:19:43 67° SSW 22:23:03 10° ESE visible
19 May -2.5 23:53:21 10° W 23:56:09 25° SSW 23:56:12 25° SSW visible
20 May -2.9 23:05:11 10° W 23:08:15 33° SSW 23:09:48 22° SSE visible
21 May -3.2 22:17:05 10° W 22:20:18 44° SSW 22:23:24 11° SE visible
21 May -1.5 23:54:51 10° WSW 23:56:19 13° SW 23:56:19 13° SW visible
22 May -1.9 23:06:12 10° W 23:08:37 18° SW 23:09:56 15° S visible
23 May -2.3 22:17:52 10° W 22:20:43 25° SSW 22:23:32 10° SSE visible
25 May -1.3 22:19:12 10° WSW 22:20:53 13° SW 22:22:35 10° S visible
